Weather History for Szolnok, Hungary

Change the Weather History Date:

Saturday, February 2, 2013

  Actual Average (LHBP) Record (LHBP)
Temperature  
Mean Temperature 42 °F -  
Max Temperature 44 °F 38 °F 55 °F (2002)
Min Temperature 39 °F 23 °F 3 °F (2012)
Degree Days  
Heating Degree Days 24    
Moisture  
Dew Point 38 °F    
Average Humidity 84    
Maximum Humidity 93    
Minimum Humidity 61    
Precipitation  
Precipitation 0.00 in - - ()
Sea Level Pressure  
Sea Level Pressure 29.36 in    
Wind  
Wind Speed 12 mph ()    
Max Wind Speed 22 mph    
Max Gust Speed 34 mph    
Visibility 5.9 miles    
Events Rain    
Averages and records for this station are not official NWS values.
T = Trace of Precipitation, MM = Missing Value Source: Averaged Metar Reports

Daily Weather History Graph

Daily Weather History Graph

Search for Another Location

Airport:

Trip Planner

Search our weather history database for the weather conditions in past years. The results will help you decide how hot, cold, wet, or windy it might be!

Date:

Astronomy

Feb. 02, 2013 Rise Set
Actual Time 7:03 AM CET 4:43 PM CET
Civil Twilight 6:30 AM CET 5:15 PM CET
Nautical Twilight 5:53 AM CET 5:52 PM CET
Astronomical Twilight 5:18 AM CET 6:27 PM CET
Moon No Moon Rise 9:32 AM CET (2/2)
Length of Visible Light 10h 45m
Length of Day
9h 40m
Waning Gibbous, 62% of the Moon is Illuminated
Feb 2
Waning Gibbous
Feb 3
Last Quarter
Feb 10
New
Feb 17
First Quarter
Feb 25
Full

Hourly Weather History & Observations

Time (CET) Temp. Windchill Dew Point Humidity Pressure Visibility Wind Dir Wind Speed Gust Speed Precip Events Conditions
12:15 AM 42.8 °F 35.9 °F 32.0 °F 66% 29.53 in - South 13.4 mph - N/A   Clear
12:45 AM 42.8 °F 35.9 °F 30.2 °F 61% 29.50 in - South 13.4 mph 24.6 mph N/A   Clear
1:15 AM 42.8 °F 34.7 °F 30.2 °F 61% 29.50 in 6.2 mi South 17.9 mph - N/A   Overcast
1:45 AM 42.8 °F 34.7 °F 30.2 °F 61% 29.47 in 6.2 mi South 17.9 mph - N/A   Overcast
2:15 AM 42.8 °F 35.2 °F 32.0 °F 66% 29.44 in 6.2 mi South 15.7 mph - N/A Rain Light Rain
2:45 AM 41.0 °F 33.6 °F 32.0 °F 70% 29.44 in 6.2 mi South 13.4 mph - N/A Rain Light Rain
3:15 AM 41.0 °F 33.6 °F 33.8 °F 76% 29.42 in 6.2 mi South 13.4 mph - N/A Rain Light Rain
3:45 AM 41.0 °F 33.6 °F 33.8 °F 76% 29.39 in 6.2 mi South 13.4 mph - N/A Rain Light Rain
4:15 AM 41.0 °F 33.6 °F 33.8 °F 76% 29.39 in 6.2 mi South 13.4 mph - N/A Rain Light Rain
4:45 AM 41.0 °F 33.6 °F 35.6 °F 81% 29.39 in 6.2 mi South 13.4 mph - N/A Rain Light Rain
5:15 AM 41.0 °F 32.9 °F 35.6 °F 81% 29.36 in 6.2 mi South 15.7 mph - N/A Rain Light Rain
5:45 AM - - - N/A% - 6.2 mi South 15.7 mph - N/A Rain Light Rain
6:15 AM 41.0 °F 32.3 °F 37.4 °F 87% 29.33 in 6.2 mi South 17.9 mph - N/A Rain Light Rain
6:45 AM 41.0 °F 32.9 °F 37.4 °F 87% 29.33 in 6.2 mi South 15.7 mph - N/A Rain Light Rain
7:15 AM 42.8 °F 34.7 °F 39.2 °F 87% 29.33 in 5.0 mi South 17.9 mph - N/A Rain Light Rain
7:45 AM 42.8 °F 34.7 °F 39.2 °F 87% 29.33 in 5.0 mi South 17.9 mph - N/A Rain Light Rain
8:15 AM 42.8 °F 35.2 °F 41.0 °F 93% 29.30 in 6.2 mi South 15.7 mph - N/A Rain Light Rain
8:45 AM - - - N/A% - 6.2 mi South 15.7 mph - N/A   Overcast
9:15 AM 42.8 °F 35.2 °F 41.0 °F 93% 29.30 in 5.0 mi South 15.7 mph - N/A Rain Light Rain
9:45 AM 44.6 °F 37.0 °F 41.0 °F 87% 29.30 in 3.7 mi South 17.9 mph - N/A Rain Light Rain
10:15 AM 44.6 °F 37.0 °F 42.8 °F 93% 29.30 in 5.0 mi South 17.9 mph 29.1 mph N/A Rain Rain
10:45 AM 44.6 °F 36.5 °F 41.0 °F 87% 29.27 in 5.0 mi South 20.1 mph 33.6 mph N/A Rain Light Rain
10:57 AM - - - N/A% - 6.2 mi South 15.7 mph - N/A   Overcast
11:15 AM 44.6 °F 36.0 °F 41.0 °F 87% 29.27 in 5.0 mi South 22.4 mph - N/A Rain Rain
11:45 AM - - - N/A% - 6.2 mi South 13.4 mph 26.8 mph N/A   Overcast
12:15 PM 44.6 °F 37.6 °F 41.0 °F 87% 29.30 in 5.0 mi South 15.7 mph - N/A Rain Rain
12:45 PM 44.6 °F 38.9 °F 41.0 °F 87% 29.30 in 6.2 mi South 11.2 mph - N/A Rain Light Rain
1:15 PM 44.6 °F 39.8 °F 41.0 °F 87% 29.30 in 6.2 mi South 8.9 mph - N/A Rain Light Rain
1:45 PM 44.6 °F 40.8 °F 41.0 °F 87% 29.27 in 6.2 mi SSE 6.7 mph - N/A Rain Light Rain
2:15 PM 42.8 °F 40.2 °F 41.0 °F 93% 29.30 in 6.2 mi NE 4.5 mph - N/A Rain Light Rain
2:45 PM - - - N/A% - 6.2 mi West 8.9 mph - N/A   Overcast
3:15 PM 42.8 °F 38.7 °F 41.0 °F 93% 29.30 in 6.2 mi North 6.7 mph - N/A Rain Light Rain
3:45 PM 44.6 °F 42.3 °F 41.0 °F 87% 29.30 in 6.2 mi NE 4.5 mph - N/A Rain Light Rain
4:15 PM 44.6 °F 40.8 °F 41.0 °F 87% 29.30 in 6.2 mi ESE 6.7 mph - N/A Rain Light Rain
4:45 PM 42.8 °F 38.7 °F 41.0 °F 93% 29.30 in 6.2 mi ESE 6.7 mph - N/A Rain Light Rain
5:15 PM 42.8 °F - 41.0 °F 93% 29.30 in 5.0 mi WSW 2.2 mph - N/A Rain Light Rain
5:45 PM - - - N/A% - 5.0 mi NW 8.9 mph - N/A   Overcast
6:15 PM 44.6 °F 38.9 °F 42.8 °F 93% 29.33 in 6.2 mi WNW 11.2 mph - N/A Rain Light Rain
6:45 PM 44.6 °F 39.8 °F 41.0 °F 87% 29.33 in 6.2 mi NW 8.9 mph 20.1 mph N/A Rain Light Rain
7:15 PM 42.8 °F 35.2 °F 39.2 °F 87% 29.36 in 6.2 mi NNW 15.7 mph - N/A Rain Light Rain
7:45 PM 41.0 °F 33.6 °F 37.4 °F 87% 29.39 in 6.2 mi NW 13.4 mph - N/A Rain Light Rain
8:15 PM 41.0 °F 34.4 °F 37.4 °F 87% 29.39 in 6.2 mi NW 11.2 mph - N/A Rain Light Rain
8:45 PM - - - N/A% - 5.0 mi NW 8.9 mph - N/A   Overcast
9:15 PM 39.2 °F 33.1 °F 37.4 °F 93% 29.39 in 6.2 mi NW 8.9 mph - N/A Rain Light Rain
9:45 PM 39.2 °F 33.1 °F 37.4 °F 93% 29.39 in 6.2 mi NW 8.9 mph - N/A Rain Light Rain
10:15 PM 39.2 °F 34.4 °F 37.4 °F 93% 29.39 in 6.2 mi NNW 6.7 mph - N/A   Overcast
10:45 PM 39.2 °F 34.4 °F 37.4 °F 93% 29.39 in 6.2 mi NNW 6.7 mph - N/A   Overcast
11:15 PM 39.2 °F 34.4 °F 37.4 °F 93% 29.42 in 6.2 mi North 6.7 mph - N/A   Overcast
11:45 PM - - - N/A% - 5.0 mi North - - N/A   Overcast